Year,Month,Day,Hour,Minute,Value (Times are PST for windspeed in km/hr)
2006,01,29,00,00,8.20
2006,01,29,00,01,8.80
2006,01,29,00,02,8.10
2006,01,29,00,03,7.40
2006,01,29,00,04,7.20
2006,01,29,00,05,5.20
2006,01,29,00,06,5.20
2006,01,29,00,07,7.60
2006,01,29,00,08,6.70
2006,01,29,00,09,7.30
2006,01,29,00,10,5.40
2006,01,29,00,11,5.80
2006,01,29,00,12,7.00
2006,01,29,00,13,6.90
2006,01,29,00,14,6.00
2006,01,29,00,15,7.30
2006,01,29,00,16,6.40
2006,01,29,00,17,8.60
2006,01,29,00,18,11.30
2006,01,29,00,19,12.00
2006,01,29,00,20,10.90
2006,01,29,00,21,9.30
2006,01,29,00,22,10.70
2006,01,29,00,23,12.30
2006,01,29,00,24,12.00
2006,01,29,00,25,13.10
2006,01,29,00,26,11.10
2006,01,29,00,27,12.00
2006,01,29,00,28,13.60
2006,01,29,00,29,10.80
2006,01,29,00,30,9.30
2006,01,29,00,31,8.70
2006,01,29,00,32,10.80
2006,01,29,00,33,9.90
2006,01,29,00,34,9.30
2006,01,29,00,35,9.70
2006,01,29,00,36,7.70
2006,01,29,00,37,6.40
2006,01,29,00,38,6.40
2006,01,29,00,39,7.70
2006,01,29,00,40,8.20
2006,01,29,00,41,8.10
2006,01,29,00,42,6.00
2006,01,29,00,43,7.70
2006,01,29,00,44,6.50
2006,01,29,00,45,5.50
2006,01,29,00,46,7.40
2006,01,29,00,47,5.90
2006,01,29,00,48,4.90
2006,01,29,00,49,5.60
2006,01,29,00,50,5.60
2006,01,29,00,51,6.40
2006,01,29,00,52,6.60
2006,01,29,00,53,7.30
2006,01,29,00,54,6.30
2006,01,29,00,55,6.10
2006,01,29,00,56,6.80
2006,01,29,00,57,6.30
2006,01,29,00,58,7.10
2006,01,29,00,59,5.60
2006,01,29,01,00,7.40
2006,01,29,01,01,4.30
2006,01,29,01,02,4.70
2006,01,29,01,03,2.90
2006,01,29,01,04,2.30
2006,01,29,01,05,2.80
2006,01,29,01,06,3.10
2006,01,29,01,07,2.20
2006,01,29,01,08,2.20
2006,01,29,01,09,1.80
2006,01,29,01,10,1.10
2006,01,29,01,11,0.00
2006,01,29,01,12,0.00
2006,01,29,01,13,0.00
2006,01,29,01,14,0.00
2006,01,29,01,15,0.00
2006,01,29,01,16,0.00
2006,01,29,01,17,0.00
2006,01,29,01,18,0.00
2006,01,29,01,19,0.00
2006,01,29,01,20,0.20
2006,01,29,01,21,0.00
2006,01,29,01,22,0.10
2006,01,29,01,23,0.00
2006,01,29,01,24,0.00
2006,01,29,01,25,0.00
2006,01,29,01,26,0.00
2006,01,29,01,27,2.30
2006,01,29,01,28,3.50
2006,01,29,01,29,4.50
2006,01,29,01,30,3.90
2006,01,29,01,31,4.20
2006,01,29,01,32,5.40
2006,01,29,01,33,4.40
2006,01,29,01,34,2.80
2006,01,29,01,35,3.20
2006,01,29,01,36,3.00
2006,01,29,01,37,2.10
2006,01,29,01,38,3.00
2006,01,29,01,39,1.90
2006,01,29,01,40,1.60
2006,01,29,01,41,3.10
2006,01,29,01,42,3.20
2006,01,29,01,43,3.00
2006,01,29,01,44,2.80
2006,01,29,01,45,2.40
2006,01,29,01,46,2.10
2006,01,29,01,47,3.80
2006,01,29,01,48,2.60
2006,01,29,01,49,5.00
2006,01,29,01,50,3.70
2006,01,29,01,51,3.00
2006,01,29,01,52,3.10
2006,01,29,01,53,4.70
2006,01,29,01,54,3.10
2006,01,29,01,55,1.80
2006,01,29,01,56,4.60
2006,01,29,01,57,2.60
2006,01,29,01,58,2.30
2006,01,29,01,59,0.90
2006,01,29,02,00,0.20
2006,01,29,02,01,1.00
2006,01,29,02,02,0.60
2006,01,29,02,03,2.50
2006,01,29,02,04,2.70
2006,01,29,02,05,2.40
2006,01,29,02,06,2.20
2006,01,29,02,07,1.40
2006,01,29,02,08,0.90
2006,01,29,02,09,1.90
2006,01,29,02,10,1.30
2006,01,29,02,11,1.40
2006,01,29,02,12,2.50
2006,01,29,02,13,3.10
2006,01,29,02,14,3.00
2006,01,29,02,15,3.20
2006,01,29,02,16,4.60
2006,01,29,02,17,4.70
2006,01,29,02,18,4.50
2006,01,29,02,19,5.40
2006,01,29,02,20,4.90
2006,01,29,02,21,7.60
2006,01,29,02,22,7.80
2006,01,29,02,23,5.60
2006,01,29,02,24,5.30
2006,01,29,02,25,3.90
2006,01,29,02,26,5.50
2006,01,29,02,27,6.40
2006,01,29,02,28,4.00
2006,01,29,02,29,3.30
2006,01,29,02,30,3.90
2006,01,29,02,31,10.00
2006,01,29,02,32,5.50
2006,01,29,02,33,7.90
2006,01,29,02,34,5.10
2006,01,29,02,35,9.00
2006,01,29,02,36,5.60
2006,01,29,02,37,7.20
2006,01,29,02,38,6.90
2006,01,29,02,39,9.80
2006,01,29,02,40,4.30
2006,01,29,02,41,4.10
2006,01,29,02,42,5.70
2006,01,29,02,43,5.10
2006,01,29,02,44,3.80
2006,01,29,02,45,3.50
2006,01,29,02,46,5.00
2006,01,29,02,47,8.00
2006,01,29,02,48,6.70
2006,01,29,02,49,5.70
2006,01,29,02,50,4.80
2006,01,29,02,51,6.20
2006,01,29,02,52,5.70
2006,01,29,02,53,7.10
2006,01,29,02,54,6.90
2006,01,29,02,55,5.10
2006,01,29,02,56,8.50
2006,01,29,02,57,8.70
2006,01,29,02,58,10.00
2006,01,29,02,59,11.10
2006,01,29,03,00,10.10
2006,01,29,03,01,10.10
2006,01,29,03,02,4.70
2006,01,29,03,03,5.00
2006,01,29,03,04,5.10
2006,01,29,03,05,5.60
2006,01,29,03,06,6.40
2006,01,29,03,07,8.10
2006,01,29,03,08,4.90
2006,01,29,03,09,4.90
2006,01,29,03,10,5.30
2006,01,29,03,11,3.70
2006,01,29,03,12,2.70
2006,01,29,03,13,5.20
2006,01,29,03,14,2.70
2006,01,29,03,15,0.00
2006,01,29,03,16,0.00
2006,01,29,03,17,0.00
2006,01,29,03,18,0.00
2006,01,29,03,19,0.00
2006,01,29,03,20,0.00
2006,01,29,03,21,0.00
2006,01,29,03,22,0.00
2006,01,29,03,23,0.00
2006,01,29,03,24,0.00
2006,01,29,03,25,0.00
2006,01,29,03,26,0.00
2006,01,29,03,27,0.20
2006,01,29,03,28,2.90
2006,01,29,03,29,0.80
2006,01,29,03,30,0.00
2006,01,29,03,31,0.00
2006,01,29,03,32,0.00
2006,01,29,03,33,0.00
2006,01,29,03,34,0.00
2006,01,29,03,35,0.00
2006,01,29,03,36,5.20
2006,01,29,03,37,4.50
2006,01,29,03,38,3.10
2006,01,29,03,39,4.00
2006,01,29,03,40,2.60
2006,01,29,03,41,2.50
2006,01,29,03,42,2.50
2006,01,29,03,43,2.70
2006,01,29,03,44,2.90
2006,01,29,03,45,2.30
2006,01,29,03,46,5.20
2006,01,29,03,47,2.80
2006,01,29,03,48,1.10
2006,01,29,03,49,3.30
2006,01,29,03,50,3.50
2006,01,29,03,51,6.50
2006,01,29,03,52,3.40
2006,01,29,03,53,3.10
2006,01,29,03,54,2.30
2006,01,29,03,55,2.00
2006,01,29,03,56,1.90
2006,01,29,03,57,3.50
2006,01,29,03,58,3.10
2006,01,29,03,59,2.30
2006,01,29,04,00,1.70
2006,01,29,04,01,0.20
2006,01,29,04,02,0.00
2006,01,29,04,03,0.00
2006,01,29,04,04,0.00
2006,01,29,04,05,0.00
2006,01,29,04,06,0.00
2006,01,29,04,07,0.00
2006,01,29,04,08,0.00
2006,01,29,04,09,0.00
2006,01,29,04,10,0.20
2006,01,29,04,11,2.30
2006,01,29,04,12,3.00
2006,01,29,04,13,4.00
2006,01,29,04,14,0.50
2006,01,29,04,15,1.80
2006,01,29,04,16,3.60
2006,01,29,04,17,2.00
2006,01,29,04,18,1.30
2006,01,29,04,19,1.50
2006,01,29,04,20,3.80
2006,01,29,04,21,4.00
2006,01,29,04,22,2.50
2006,01,29,04,23,0.40
2006,01,29,04,24,1.30
2006,01,29,04,25,0.20
2006,01,29,04,26,1.20
2006,01,29,04,27,1.10
2006,01,29,04,28,2.20
2006,01,29,04,29,3.10
2006,01,29,04,30,2.30
2006,01,29,04,31,1.30
2006,01,29,04,32,2.70
2006,01,29,04,33,3.70
2006,01,29,04,34,4.70
2006,01,29,04,35,4.00
2006,01,29,04,36,4.60
2006,01,29,04,37,2.40
2006,01,29,04,38,3.10
2006,01,29,04,39,5.30
2006,01,29,04,40,3.50
2006,01,29,04,41,4.90
2006,01,29,04,42,7.70
2006,01,29,04,43,11.30
2006,01,29,04,44,11.70
2006,01,29,04,45,6.40
2006,01,29,04,46,6.80
2006,01,29,04,47,5.00
2006,01,29,04,48,3.30
2006,01,29,04,49,3.10
2006,01,29,04,50,2.50
2006,01,29,04,51,3.20
2006,01,29,04,52,5.50
2006,01,29,04,53,5.20
2006,01,29,04,54,4.50
2006,01,29,04,55,6.20
2006,01,29,04,56,6.60
2006,01,29,04,57,4.20
2006,01,29,04,58,4.70
2006,01,29,04,59,3.50
2006,01,29,05,00,3.80
2006,01,29,05,01,2.10
2006,01,29,05,02,1.00
2006,01,29,05,03,1.10
2006,01,29,05,04,3.70
2006,01,29,05,05,4.70
2006,01,29,05,06,7.60
2006,01,29,05,07,5.50
2006,01,29,05,08,6.60
2006,01,29,05,09,6.40
2006,01,29,05,10,7.00
2006,01,29,05,11,5.30
2006,01,29,05,12,7.80
2006,01,29,05,13,8.90
2006,01,29,05,14,10.80
2006,01,29,05,15,10.10
2006,01,29,05,16,13.30
2006,01,29,05,17,9.60
2006,01,29,05,18,7.70
2006,01,29,05,19,8.00
2006,01,29,05,20,9.10
2006,01,29,05,21,8.90
2006,01,29,05,22,8.60
2006,01,29,05,23,8.10
2006,01,29,05,24,8.50
2006,01,29,05,25,5.10
2006,01,29,05,26,5.30
2006,01,29,05,27,4.80
2006,01,29,05,28,3.40
2006,01,29,05,29,3.10
2006,01,29,05,30,3.00
2006,01,29,05,31,4.20
2006,01,29,05,32,8.60
2006,01,29,05,33,8.20
2006,01,29,05,34,5.70
2006,01,29,05,35,4.80
2006,01,29,05,36,3.40
2006,01,29,05,37,4.30
2006,01,29,05,38,4.00
2006,01,29,05,39,6.90
2006,01,29,05,40,4.50
2006,01,29,05,41,3.30
2006,01,29,05,42,2.20
2006,01,29,05,43,5.00
2006,01,29,05,44,5.00
2006,01,29,05,45,6.00
2006,01,29,05,46,6.80
2006,01,29,05,47,6.60
2006,01,29,05,48,5.30
2006,01,29,05,49,8.00
2006,01,29,05,50,9.60
2006,01,29,05,51,8.10
2006,01,29,05,52,8.90
2006,01,29,05,53,5.70
2006,01,29,05,54,3.10
2006,01,29,05,55,4.90
2006,01,29,05,56,5.10
2006,01,29,05,57,4.50
2006,01,29,05,58,3.00
2006,01,29,05,59,5.20
2006,01,29,06,00,5.40
2006,01,29,06,01,2.50
2006,01,29,06,02,3.50
2006,01,29,06,03,3.70
2006,01,29,06,04,2.70
2006,01,29,06,05,2.30
2006,01,29,06,06,3.00
2006,01,29,06,07,0.10
2006,01,29,06,08,3.40
2006,01,29,06,09,3.30
2006,01,29,06,10,2.30
2006,01,29,06,11,4.80
2006,01,29,06,12,3.90
2006,01,29,06,13,1.90
2006,01,29,06,14,1.50
2006,01,29,06,15,1.50
2006,01,29,06,16,0.00
2006,01,29,06,17,0.00
2006,01,29,06,18,0.00
2006,01,29,06,19,0.10
2006,01,29,06,20,0.00
2006,01,29,06,21,0.00
2006,01,29,06,22,0.00
2006,01,29,06,23,0.00
2006,01,29,06,24,0.00
2006,01,29,06,25,0.00
2006,01,29,06,26,0.00
2006,01,29,06,27,0.00
2006,01,29,06,28,0.00
2006,01,29,06,29,0.00
2006,01,29,06,30,0.00
2006,01,29,06,31,0.00
2006,01,29,06,32,0.00
2006,01,29,06,33,0.00
2006,01,29,06,34,0.00
2006,01,29,06,35,0.00
2006,01,29,06,36,0.00
2006,01,29,06,37,0.00
2006,01,29,06,38,0.00
2006,01,29,06,39,0.00
2006,01,29,06,40,0.00
2006,01,29,06,41,0.00
2006,01,29,06,42,0.00
2006,01,29,06,43,0.00
2006,01,29,06,44,0.00
2006,01,29,06,45,0.00
2006,01,29,06,46,0.00
2006,01,29,06,47,0.00
2006,01,29,06,48,0.00
2006,01,29,06,49,0.00
2006,01,29,06,50,0.00
2006,01,29,06,51,0.00
2006,01,29,06,52,0.00
2006,01,29,06,53,0.00
2006,01,29,06,54,0.00
2006,01,29,06,55,0.00
2006,01,29,06,56,0.00
2006,01,29,06,57,0.00
2006,01,29,06,58,0.00
2006,01,29,06,59,0.00
2006,01,29,07,00,0.00
2006,01,29,07,01,0.00
2006,01,29,07,02,0.00
2006,01,29,07,03,0.00
2006,01,29,07,04,0.00
2006,01,29,07,05,0.00
2006,01,29,07,06,0.00
2006,01,29,07,07,0.00
2006,01,29,07,08,0.00
2006,01,29,07,09,0.00
2006,01,29,07,10,0.00
2006,01,29,07,11,0.00
2006,01,29,07,12,0.00
2006,01,29,07,13,0.00
2006,01,29,07,14,0.00
2006,01,29,07,15,0.40
2006,01,29,07,16,0.60
2006,01,29,07,17,1.90
2006,01,29,07,18,0.00
2006,01,29,07,19,0.00
2006,01,29,07,20,0.00
2006,01,29,07,21,0.00
2006,01,29,07,22,0.00
2006,01,29,07,23,0.00
2006,01,29,07,24,0.00
2006,01,29,07,25,2.60
2006,01,29,07,26,3.40
2006,01,29,07,27,3.30
2006,01,29,07,28,3.40
2006,01,29,07,29,2.50
2006,01,29,07,30,3.20
2006,01,29,07,31,3.00
2006,01,29,07,32,2.60
2006,01,29,07,33,2.50
2006,01,29,07,34,3.60
2006,01,29,07,35,2.80
2006,01,29,07,36,1.40
2006,01,29,07,37,0.00
2006,01,29,07,38,0.00
2006,01,29,07,39,0.00
2006,01,29,07,40,0.00
2006,01,29,07,41,0.00
2006,01,29,07,42,0.00
2006,01,29,07,43,0.00
2006,01,29,07,44,0.00
2006,01,29,07,45,0.00
2006,01,29,07,46,0.00
2006,01,29,07,47,0.00
2006,01,29,07,48,0.00
2006,01,29,07,49,0.00
2006,01,29,07,50,0.00
2006,01,29,07,51,0.00
2006,01,29,07,52,0.00
2006,01,29,07,53,0.00
2006,01,29,07,54,0.00
2006,01,29,07,55,0.00
2006,01,29,07,56,0.00
2006,01,29,07,57,0.00
2006,01,29,07,58,0.00
2006,01,29,07,59,0.00
2006,01,29,08,00,0.00
2006,01,29,08,01,0.00
2006,01,29,08,02,0.00
2006,01,29,08,03,0.00
2006,01,29,08,04,0.00
2006,01,29,08,05,0.00
2006,01,29,08,06,0.00
2006,01,29,08,07,0.00
2006,01,29,08,08,0.20
2006,01,29,08,09,2.40
2006,01,29,08,10,2.50
2006,01,29,08,11,3.20
2006,01,29,08,12,1.20
2006,01,29,08,13,1.40
2006,01,29,08,14,1.20
2006,01,29,08,15,2.60
2006,01,29,08,16,1.30
2006,01,29,08,17,2.60
2006,01,29,08,18,0.10
2006,01,29,08,19,0.50
2006,01,29,08,20,4.50
2006,01,29,08,21,9.30
2006,01,29,08,22,5.80
2006,01,29,08,23,2.50
2006,01,29,08,24,1.60
2006,01,29,08,25,4.10
2006,01,29,08,26,4.30
2006,01,29,08,27,4.00
2006,01,29,08,28,3.30
2006,01,29,08,29,3.80
2006,01,29,08,30,4.50
2006,01,29,08,31,4.60
2006,01,29,08,32,6.00
2006,01,29,08,33,3.30
2006,01,29,08,34,3.20
2006,01,29,08,35,4.10
2006,01,29,08,36,6.10
2006,01,29,08,37,3.80
2006,01,29,08,38,1.90
2006,01,29,08,39,3.00
2006,01,29,08,40,3.50
2006,01,29,08,41,5.80
2006,01,29,08,42,5.50
2006,01,29,08,43,6.10
2006,01,29,08,44,5.90
2006,01,29,08,45,5.70
2006,01,29,08,46,4.80
2006,01,29,08,47,4.40
2006,01,29,08,48,8.50
2006,01,29,08,49,8.00
2006,01,29,08,50,8.20
2006,01,29,08,51,8.10
2006,01,29,08,52,6.40
2006,01,29,08,53,9.00
2006,01,29,08,54,8.50
2006,01,29,08,55,8.00
2006,01,29,08,56,6.00
2006,01,29,08,57,4.10
2006,01,29,08,58,7.00
2006,01,29,08,59,9.60
2006,01,29,09,00,8.60
2006,01,29,09,01,7.10
2006,01,29,09,02,5.70
2006,01,29,09,03,4.50
2006,01,29,09,04,10.20
2006,01,29,09,05,9.30
2006,01,29,09,06,6.70
2006,01,29,09,07,8.00
2006,01,29,09,08,5.80
2006,01,29,09,09,7.30
2006,01,29,09,10,8.40
2006,01,29,09,11,7.70
2006,01,29,09,12,6.00
2006,01,29,09,13,8.00
2006,01,29,09,14,6.90
2006,01,29,09,15,8.60
2006,01,29,09,16,7.00
2006,01,29,09,17,5.70
2006,01,29,09,18,6.40
2006,01,29,09,19,9.10
2006,01,29,09,20,5.80
2006,01,29,09,21,6.80
2006,01,29,09,22,4.30
2006,01,29,09,23,6.80
2006,01,29,09,24,8.30
2006,01,29,09,25,7.70
2006,01,29,09,26,9.00
2006,01,29,09,27,9.60
2006,01,29,09,28,7.50
2006,01,29,09,29,7.50
2006,01,29,09,30,7.50
2006,01,29,09,31,6.00
2006,01,29,09,32,3.50
2006,01,29,09,33,7.50
2006,01,29,09,34,7.70
2006,01,29,09,35,3.80
2006,01,29,09,36,8.50
2006,01,29,09,37,9.10
2006,01,29,09,38,5.10
2006,01,29,09,39,5.30
2006,01,29,09,40,6.20
2006,01,29,09,41,4.70
2006,01,29,09,42,8.20
2006,01,29,09,43,12.60
2006,01,29,09,44,9.90
2006,01,29,09,45,7.90
2006,01,29,09,46,6.90
2006,01,29,09,47,8.90
2006,01,29,09,48,11.20
2006,01,29,09,49,6.10
2006,01,29,09,50,5.00
2006,01,29,09,51,6.00
2006,01,29,09,52,7.40
2006,01,29,09,53,7.60
2006,01,29,09,54,5.90
2006,01,29,09,55,5.30
2006,01,29,09,56,5.10
2006,01,29,09,57,4.40
2006,01,29,09,58,7.60
2006,01,29,09,59,4.10
2006,01,29,10,00,3.20
2006,01,29,10,01,4.10
2006,01,29,10,02,7.20
2006,01,29,10,03,6.20
2006,01,29,10,04,7.50
2006,01,29,10,05,6.10
2006,01,29,10,06,7.00
2006,01,29,10,07,9.00
2006,01,29,10,08,7.00
2006,01,29,10,09,6.80
2006,01,29,10,10,9.10
2006,01,29,10,11,9.20
2006,01,29,10,12,10.10
2006,01,29,10,13,9.60
2006,01,29,10,14,5.30
2006,01,29,10,15,4.90
2006,01,29,10,16,5.90
2006,01,29,10,17,8.50
2006,01,29,10,18,10.50
2006,01,29,10,19,10.10
2006,01,29,10,20,10.10
2006,01,29,10,21,6.60
2006,01,29,10,22,8.70
2006,01,29,10,23,12.00
2006,01,29,10,24,10.60
2006,01,29,10,25,12.10
2006,01,29,10,26,7.20
2006,01,29,10,27,8.50
2006,01,29,10,28,8.40
2006,01,29,10,29,9.70
2006,01,29,10,30,8.90
2006,01,29,10,31,10.00
2006,01,29,10,32,7.00
2006,01,29,10,33,9.80
2006,01,29,10,34,8.70
2006,01,29,10,35,11.30
2006,01,29,10,36,11.80
2006,01,29,10,37,6.10
2006,01,29,10,38,6.30
2006,01,29,10,39,8.00
2006,01,29,10,40,8.80
2006,01,29,10,41,5.00
2006,01,29,10,42,2.70
2006,01,29,10,43,3.10
2006,01,29,10,44,5.60
2006,01,29,10,45,5.40
2006,01,29,10,46,9.60
2006,01,29,10,47,9.70
2006,01,29,10,48,15.30
2006,01,29,10,49,8.20
2006,01,29,10,50,9.10
2006,01,29,10,51,10.90
2006,01,29,10,52,10.20
2006,01,29,10,53,13.00
2006,01,29,10,54,6.70
2006,01,29,10,55,6.60
2006,01,29,10,56,11.60
2006,01,29,10,57,15.30
2006,01,29,10,58,10.70
2006,01,29,10,59,9.30
2006,01,29,11,00,6.90
2006,01,29,11,01,6.30
2006,01,29,11,02,6.10
2006,01,29,11,03,9.60
2006,01,29,11,04,7.30
2006,01,29,11,05,9.90
2006,01,29,11,06,9.40
2006,01,29,11,07,13.20
2006,01,29,11,08,15.20
2006,01,29,11,09,16.70
2006,01,29,11,10,18.30
2006,01,29,11,11,11.90
2006,01,29,11,12,9.50
2006,01,29,11,13,15.80
2006,01,29,11,14,12.60
2006,01,29,11,15,16.10
2006,01,29,11,16,16.30
2006,01,29,11,17,22.10
2006,01,29,11,18,22.10
2006,01,29,11,19,14.70
2006,01,29,11,20,22.10
2006,01,29,11,21,12.70
2006,01,29,11,22,16.50
2006,01,29,11,23,9.90
2006,01,29,11,24,11.80
2006,01,29,11,25,12.70
2006,01,29,11,26,14.40
2006,01,29,11,27,13.20
2006,01,29,11,28,11.90
2006,01,29,11,29,14.40
2006,01,29,11,30,11.80
2006,01,29,11,31,19.80
2006,01,29,11,32,14.70
2006,01,29,11,33,21.80
2006,01,29,11,34,21.90
2006,01,29,11,35,13.50
2006,01,29,11,36,16.60
2006,01,29,11,37,9.90
2006,01,29,11,38,10.30
2006,01,29,11,39,11.60
2006,01,29,11,40,18.50
2006,01,29,11,41,18.90
2006,01,29,11,42,26.10
2006,01,29,11,43,27.50
2006,01,29,11,44,18.20
2006,01,29,11,45,23.70
2006,01,29,11,46,30.20
2006,01,29,11,47,20.40
2006,01,29,11,48,29.60
2006,01,29,11,49,25.30
2006,01,29,11,50,21.20
2006,01,29,11,51,18.90
2006,01,29,11,52,21.50
2006,01,29,11,53,31.40
2006,01,29,11,54,27.00
2006,01,29,11,55,16.50
2006,01,29,11,56,10.70
2006,01,29,11,57,19.50
2006,01,29,11,58,20.20
2006,01,29,11,59,15.40
2006,01,29,12,00,28.00
2006,01,29,12,01,16.70
2006,01,29,12,02,21.20
2006,01,29,12,03,27.90
2006,01,29,12,04,29.30
2006,01,29,12,05,32.80
2006,01,29,12,06,19.50
2006,01,29,12,07,22.90
2006,01,29,12,08,25.20
2006,01,29,12,09,20.40
2006,01,29,12,10,26.60
2006,01,29,12,11,19.70
2006,01,29,12,12,18.00
2006,01,29,12,13,19.60
2006,01,29,12,14,32.30
2006,01,29,12,15,32.00
2006,01,29,12,16,28.20
2006,01,29,12,17,27.40
2006,01,29,12,18,29.90
2006,01,29,12,19,26.60
2006,01,29,12,20,30.30
2006,01,29,12,21,27.20
2006,01,29,12,22,26.30
2006,01,29,12,23,29.00
2006,01,29,12,24,30.30
2006,01,29,12,25,24.40
2006,01,29,12,26,23.10
2006,01,29,12,27,27.40
2006,01,29,12,28,22.90
2006,01,29,12,29,33.40
2006,01,29,12,30,26.70
2006,01,29,12,31,30.70
2006,01,29,12,32,28.80
2006,01,29,12,33,22.90
2006,01,29,12,34,20.00
2006,01,29,12,35,19.10
2006,01,29,12,36,26.60
2006,01,29,12,37,26.20
2006,01,29,12,38,27.50
2006,01,29,12,39,20.20
2006,01,29,12,40,19.80
2006,01,29,12,41,24.90
2006,01,29,12,42,16.00
2006,01,29,12,43,15.20
2006,01,29,12,44,31.90
2006,01,29,12,45,33.80
2006,01,29,12,46,36.50
2006,01,29,12,47,34.30
2006,01,29,12,48,31.30
2006,01,29,12,49,28.30
2006,01,29,12,50,24.10
2006,01,29,12,51,22.80
2006,01,29,12,52,23.40
2006,01,29,12,53,22.80
2006,01,29,12,54,23.90
2006,01,29,12,55,23.30
2006,01,29,12,56,25.70
2006,01,29,12,57,23.50
2006,01,29,12,58,24.20
2006,01,29,12,59,25.10
2006,01,29,13,00,29.90
2006,01,29,13,01,31.50
2006,01,29,13,02,30.60
2006,01,29,13,03,32.90
2006,01,29,13,04,26.40
2006,01,29,13,05,29.10
2006,01,29,13,06,34.10
2006,01,29,13,07,28.20
2006,01,29,13,08,31.50
2006,01,29,13,09,19.10
2006,01,29,13,10,14.80
2006,01,29,13,11,26.80
2006,01,29,13,12,27.90
2006,01,29,13,13,23.90
2006,01,29,13,14,23.90
2006,01,29,13,15,28.30
2006,01,29,13,16,20.30
2006,01,29,13,17,24.40
2006,01,29,13,18,19.60
2006,01,29,13,19,28.30
2006,01,29,13,20,19.70
2006,01,29,13,21,33.40
2006,01,29,13,22,30.10
2006,01,29,13,23,31.10
2006,01,29,13,24,25.80
2006,01,29,13,25,25.90
2006,01,29,13,26,25.50
2006,01,29,13,27,29.40
2006,01,29,13,28,26.60
2006,01,29,13,29,26.60
2006,01,29,13,30,39.10
2006,01,29,13,31,35.70
2006,01,29,13,32,29.90
2006,01,29,13,33,33.00
2006,01,29,13,34,30.90
2006,01,29,13,35,37.70
2006,01,29,13,36,25.50
2006,01,29,13,37,26.70
2006,01,29,13,38,24.90
2006,01,29,13,39,35.10
2006,01,29,13,40,32.90
2006,01,29,13,41,25.30
2006,01,29,13,42,29.80
2006,01,29,13,43,28.00
2006,01,29,13,44,26.50
2006,01,29,13,45,36.10
2006,01,29,13,46,28.80
2006,01,29,13,47,22.70
2006,01,29,13,48,25.50
2006,01,29,13,49,31.60
2006,01,29,13,50,26.70
2006,01,29,13,51,31.80
2006,01,29,13,52,31.80
2006,01,29,13,53,24.90
2006,01,29,13,54,41.70
2006,01,29,13,55,41.70
2006,01,29,13,56,35.60
2006,01,29,13,57,28.60
2006,01,29,13,58,22.40
2006,01,29,13,59,30.50
2006,01,29,14,00,35.70
2006,01,29,14,01,28.30
2006,01,29,14,02,32.30
2006,01,29,14,03,36.80
2006,01,29,14,04,25.30
2006,01,29,14,05,26.50
2006,01,29,14,06,19.70
2006,01,29,14,07,27.50
2006,01,29,14,08,31.90
2006,01,29,14,09,19.20
2006,01,29,14,10,26.80
2006,01,29,14,11,33.30
2006,01,29,14,12,27.30
2006,01,29,14,13,31.10
2006,01,29,14,14,30.40
2006,01,29,14,15,33.60
2006,01,29,14,16,29.60
2006,01,29,14,17,32.80
2006,01,29,14,18,24.10
2006,01,29,14,19,25.50
2006,01,29,14,20,33.80
2006,01,29,14,21,24.00
2006,01,29,14,22,22.40
2006,01,29,14,23,22.80
2006,01,29,14,24,22.40
2006,01,29,14,25,30.70
2006,01,29,14,26,37.30
2006,01,29,14,27,33.50
2006,01,29,14,28,32.80
2006,01,29,14,29,30.20
2006,01,29,14,30,30.40
2006,01,29,14,31,36.00
2006,01,29,14,32,25.80
2006,01,29,14,33,20.00
2006,01,29,14,34,24.90
2006,01,29,14,35,27.30
2006,01,29,14,36,37.30
2006,01,29,14,37,37.90
2006,01,29,14,38,35.90
2006,01,29,14,39,32.80
2006,01,29,14,40,21.90
2006,01,29,14,41,14.30
2006,01,29,14,42,21.20
2006,01,29,14,43,18.00
2006,01,29,14,44,19.30
2006,01,29,14,45,38.50
2006,01,29,14,46,35.70
2006,01,29,14,47,37.40
2006,01,29,14,48,31.80
2006,01,29,14,49,29.10
2006,01,29,14,50,30.80
2006,01,29,14,51,31.40
2006,01,29,14,52,30.90
2006,01,29,14,53,27.00
2006,01,29,14,54,26.50
2006,01,29,14,55,34.70
2006,01,29,14,56,26.20
2006,01,29,14,57,25.20
2006,01,29,14,58,24.20
2006,01,29,14,59,23.10
2006,01,29,15,00,19.80
2006,01,29,15,01,22.40
2006,01,29,15,02,15.90
2006,01,29,15,03,15.80
2006,01,29,15,04,24.10
2006,01,29,15,05,34.30
2006,01,29,15,06,25.50
2006,01,29,15,07,22.50
2006,01,29,15,08,21.90
2006,01,29,15,09,27.00
2006,01,29,15,10,24.50
2006,01,29,15,11,25.90
2006,01,29,15,12,24.40
2006,01,29,15,13,25.00
2006,01,29,15,14,38.40
2006,01,29,15,15,27.50
2006,01,29,15,16,27.30
2006,01,29,15,17,35.60
2006,01,29,15,18,39.60
2006,01,29,15,19,33.00
2006,01,29,15,20,25.20
2006,01,29,15,21,17.00
2006,01,29,15,22,23.80
2006,01,29,15,23,29.00
2006,01,29,15,24,26.20
2006,01,29,15,25,20.80
2006,01,29,15,26,25.20
2006,01,29,15,27,30.50
2006,01,29,15,28,38.10
2006,01,29,15,29,28.60
2006,01,29,15,30,18.30
2006,01,29,15,31,25.30
2006,01,29,15,32,28.30
2006,01,29,15,33,16.80
2006,01,29,15,34,31.90
2006,01,29,15,35,35.60
2006,01,29,15,36,26.90
2006,01,29,15,37,34.40
2006,01,29,15,38,26.70
2006,01,29,15,39,31.20
2006,01,29,15,40,25.60
2006,01,29,15,41,24.10
2006,01,29,15,42,28.50
2006,01,29,15,43,35.30
2006,01,29,15,44,31.30
2006,01,29,15,45,32.50
2006,01,29,15,46,26.80
2006,01,29,15,47,34.00
2006,01,29,15,48,28.40
2006,01,29,15,49,27.60
2006,01,29,15,50,30.60
2006,01,29,15,51,30.60
2006,01,29,15,52,20.90
2006,01,29,15,53,34.00
2006,01,29,15,54,30.40
2006,01,29,15,55,43.50
2006,01,29,15,56,34.30
2006,01,29,15,57,35.70
2006,01,29,15,58,30.00
2006,01,29,15,59,25.20
2006,01,29,16,00,15.90
2006,01,29,16,01,20.80
2006,01,29,16,02,24.50
2006,01,29,16,03,23.30
2006,01,29,16,04,27.90
2006,01,29,16,05,35.40
2006,01,29,16,06,30.90
2006,01,29,16,07,32.30
2006,01,29,16,08,29.60
2006,01,29,16,09,34.90
2006,01,29,16,10,32.30
2006,01,29,16,11,32.90
2006,01,29,16,12,27.80
2006,01,29,16,13,27.60
2006,01,29,16,14,26.20
2006,01,29,16,15,41.80
2006,01,29,16,16,26.80
2006,01,29,16,17,25.20
2006,01,29,16,18,30.80
2006,01,29,16,19,29.60
2006,01,29,16,20,25.10
2006,01,29,16,21,23.30
2006,01,29,16,22,22.50
2006,01,29,16,23,25.60
2006,01,29,16,24,23.00
2006,01,29,16,25,30.90
2006,01,29,16,26,37.30
2006,01,29,16,27,40.10
2006,01,29,16,28,30.60
2006,01,29,16,29,34.90
2006,01,29,16,30,22.40
2006,01,29,16,31,22.60
2006,01,29,16,32,34.00
2006,01,29,16,33,34.10
2006,01,29,16,34,20.80
2006,01,29,16,35,22.30
2006,01,29,16,36,27.70
2006,01,29,16,37,27.00
2006,01,29,16,38,19.40
2006,01,29,16,39,28.80
2006,01,29,16,40,32.80
2006,01,29,16,41,22.60
2006,01,29,16,42,23.30
2006,01,29,16,43,23.40
2006,01,29,16,44,26.00
2006,01,29,16,45,22.70
2006,01,29,16,46,36.30
2006,01,29,16,47,23.90
2006,01,29,16,48,19.10
2006,01,29,16,49,25.60
2006,01,29,16,50,28.30
2006,01,29,16,51,26.60
2006,01,29,16,52,27.10
2006,01,29,16,53,29.90
2006,01,29,16,54,33.20
2006,01,29,16,55,35.90
2006,01,29,16,56,27.20
2006,01,29,16,57,27.40
2006,01,29,16,58,23.20
2006,01,29,16,59,31.30
2006,01,29,17,00,38.10
2006,01,29,17,01,28.60
2006,01,29,17,02,33.60
2006,01,29,17,03,24.70
2006,01,29,17,04,37.20
2006,01,29,17,05,33.30
2006,01,29,17,06,29.10
2006,01,29,17,07,33.40
2006,01,29,17,08,27.70
2006,01,29,17,09,27.60
2006,01,29,17,10,32.40
2006,01,29,17,11,27.70
2006,01,29,17,12,21.30
2006,01,29,17,13,32.00
2006,01,29,17,14,33.40
2006,01,29,17,15,32.80
2006,01,29,17,16,36.60
2006,01,29,17,17,33.40
2006,01,29,17,18,26.70
2006,01,29,17,19,33.80
2006,01,29,17,20,28.30
2006,01,29,17,21,27.10
2006,01,29,17,22,32.50
2006,01,29,17,23,28.20
2006,01,29,17,24,28.10
2006,01,29,17,25,27.70
2006,01,29,17,26,29.10
2006,01,29,17,27,27.10
2006,01,29,17,28,26.20
2006,01,29,17,29,36.10
2006,01,29,17,30,33.80
2006,01,29,17,31,26.70
2006,01,29,17,32,32.30
2006,01,29,17,33,22.30
2006,01,29,17,34,25.60
2006,01,29,17,35,29.50
2006,01,29,17,36,25.20
2006,01,29,17,37,31.60
2006,01,29,17,38,32.10
2006,01,29,17,39,27.70
2006,01,29,17,40,33.70
2006,01,29,17,41,33.90
2006,01,29,17,42,29.30
2006,01,29,17,43,32.50
2006,01,29,17,44,36.30
2006,01,29,17,45,28.30
2006,01,29,17,46,25.10